User: anonymous   Login
Location: Nitra
(48.3167°N, 18.0833°E)
Time: 11:30:27
(UTC+01:00)
Language:

STARLINK-1713 - Orbit

View from above orbital plane
View from above orbital plane
View from above satellite
View from above satellite

Ground track
Ground track

The orbit data is extracted from the following two-line orbital elements,

1 46360C 20062AN  20337.12152568  .00003023  00000-0  32947-4 0  3377
2 46360  52.9987 349.7576 0002491  14.9851  21.2101 15.62750096    15
Epoch (UTC): 02 December 2020 02:54:59
Eccentricity: 0.0002491
inclination: 52.9987°
perigee height: 378 km
apogee height: 381 km
right ascension of ascending node: 349.7576°
argument of perigee: 14.9851°
revolutions per day: 15.62750096
mean anomaly at epoch: 21.2101°
orbit number at epoch: 1

The dashed part of the orbit path shows where the satellite is in the earth's shadow,  

DLR